When you browse on this site, cookies collect data to enhance your experience and personalize the content and advertising you see.
Visit our Privacy Policy to learn more. By continuing to use the site, you agree to this use of cookies and data.
  • Em Portugal
  • Lista de países
  • Para 7 dias
  • Temperatura da água
  • Mapas de satélite
  • Mapa do tempo
  • Widgets de tempo
  • user-avatar
    Iniciar Sessão

    Previsão horária em Karzuli

    Hoje, 22 Abril, Segunda-feira

    Tempo Temperatura Precipitação Vento Pressão Humidade
    00:00 +8°C° 0 mm 1 m/s 766 mmHg 66%
    01:00 +7°C° 0 mm 1 m/s 766 mmHg 67%
    02:00 +7°C° 0 mm 1 m/s 766 mmHg 68%
    03:00 +7°C° 0 mm 1 m/s 766 mmHg 69%
    04:00 +7°C° 0 mm 1 m/s 766 mmHg 70%
    05:00 +6°C° 0 mm 1 m/s 766 mmHg 72%
    06:00 +8°C° 0 mm 1 m/s 767 mmHg 67%
    07:00 +11°C° 0 mm 1 m/s 767 mmHg 62%
    08:00 +13°C° 0 mm 1 m/s 767 mmHg 57%
    09:00 +14°C° 0 mm 2 m/s 767 mmHg 50%
    10:00 +16°C° 0 mm 2 m/s 767 mmHg 43%
    11:00 +18°C° 0 mm 2 m/s 767 mmHg 35%
    12:00 +18°C° 0 mm 2 m/s 767 mmHg 34%
    13:00 +19°C° 0 mm 2 m/s 767 mmHg 32%
    14:00 +19°C° 0 mm 3 m/s 767 mmHg 31%
    15:00 +19°C° 0 mm 2 m/s 767 mmHg 32%
    16:00 +19°C° 0 mm 2 m/s 767 mmHg 33%
    17:00 +18°C° 0 mm 2 m/s 767 mmHg 35%
    18:00 +17°C° 0 mm 2 m/s 767 mmHg 41%
    19:00 +15°C° 0 mm 2 m/s 767 mmHg 48%
    20:00 +13°C° 0 mm 2 m/s 767 mmHg 54%
    21:00 +12°C° 0 mm 2 m/s 767 mmHg 56%
    22:00 +10°C° 0 mm 2 m/s 768 mmHg 58%
    23:00 +9°C° 0 mm 2 m/s 768 mmHg 60%

    Amanhã, 23 Abril, Terça-feira

    Tempo Temperatura Precipitação Vento Pressão Humidade
    00:00 +9°C° 0 mm 2 m/s 768 mmHg 62%
    01:00 +9°C° 0 mm 2 m/s 769 mmHg 63%
    02:00 +8°C° 0 mm 2 m/s 769 mmHg 65%
    03:00 +8°C° 0 mm 2 m/s 769 mmHg 66%
    04:00 +8°C° 0 mm 1 m/s 769 mmHg 68%
    05:00 +8°C° 0 mm 1 m/s 769 mmHg 69%
    06:00 +10°C° 0 mm 1 m/s 769 mmHg 64%
    07:00 +12°C° 0 mm 1 m/s 769 mmHg 59%
    08:00 +14°C° 0 mm 1 m/s 769 mmHg 53%
    09:00 +15°C° 0 mm 1 m/s 769 mmHg 47%
    10:00 +17°C° 0 mm 2 m/s 769 mmHg 41%
    11:00 +18°C° 0 mm 2 m/s 769 mmHg 36%
    12:00 +19°C° 0 mm 2 m/s 769 mmHg 34%
    13:00 +19°C° 0 mm 2 m/s 769 mmHg 32%
    14:00 +20°C° 0 mm 2 m/s 769 mmHg 30%
    15:00 +21°C° 0 mm 1 m/s 768 mmHg 30%
    16:00 +21°C° 0 mm 1 m/s 768 mmHg 31%
    17:00 +20°C° 0 mm 1 m/s 768 mmHg 31%
    18:00 +18°C° 0 mm 1 m/s 768 mmHg 36%
    19:00 +15°C° 0 mm 1 m/s 768 mmHg 41%
    20:00 +14°C° 0 mm 1 m/s 768 mmHg 46%
    21:00 +13°C° 0 mm 1 m/s 768 mmHg 48%
    22:00 +12°C° 0 mm 1 m/s 768 mmHg 51%
    23:00 +11°C° 0 mm 1 m/s 769 mmHg 54%

    Depois de amanhã, 24 Abril, Quarta-feira

    Tempo Temperatura Precipitação Vento Pressão Humidade
    00:00 +11°C° 0 mm 1 m/s 769 mmHg 56%
    01:00 +10°C° 0 mm 1 m/s 769 mmHg 58%
    02:00 +10°C° 0 mm 1 m/s 769 mmHg 60%
    03:00 +10°C° 0 mm 1 m/s 769 mmHg 61%
    04:00 +8°C° 0 mm 0 m/s 769 mmHg 63%
    05:00 +8°C° 0 mm 0 m/s 769 mmHg 64%
    06:00 +10°C° 0 mm 0 m/s 769 mmHg 58%
    07:00 +12°C° 0 mm 0 m/s 769 mmHg 53%
    08:00 +15°C° 0 mm 1 m/s 769 mmHg 47%
    09:00 +18°C° 0 mm 1 m/s 769 mmHg 43%
    10:00 +20°C° 0 mm 1 m/s 769 mmHg 38%
    11:00 +20°C° 0 mm 2 m/s 769 mmHg 33%
    12:00 +21°C° 0 mm 2 m/s 768 mmHg 33%
    13:00 +21°C° 0 mm 2 m/s 768 mmHg 32%
    14:00 +21°C° 0 mm 2 m/s 768 mmHg 31%
    15:00 +21°C° 0 mm 2 m/s 767 mmHg 32%
    16:00 +21°C° 0 mm 2 m/s 767 mmHg 33%
    17:00 +21°C° 0 mm 2 m/s 767 mmHg 34%
    18:00 +19°C° 0 mm 2 m/s 767 mmHg 40%
    19:00 +18°C° 0 mm 1 m/s 767 mmHg 46%
    20:00 +15°C° 0 mm 1 m/s 767 mmHg 53%
    21:00 +14°C° 0 mm 1 m/s 767 mmHg 55%
    22:00 +13°C° 0 mm 1 m/s 767 mmHg 57%
    23:00 +12°C° 0 mm 1 m/s 767 mmHg 59%

    25 Abril, Quinta-feira

    Tempo Temperatura Precipitação Vento Pressão Humidade
    00:00 +12°C° 0 mm 1 m/s 767 mmHg 61%
    01:00 +12°C° 0 mm 1 m/s 767 mmHg 62%
    02:00 +11°C° 0 mm 1 m/s 767 mmHg 64%
    03:00 +11°C° 0 mm 1 m/s 767 mmHg 65%
    04:00 +10°C° 0 mm 1 m/s 767 mmHg 67%
    05:00 +10°C° 0 mm 1 m/s 767 mmHg 68%
    06:00 +12°C° 0 mm 2 m/s 767 mmHg 63%
    07:00 +14°C° 0 mm 2 m/s 767 mmHg 59%
    08:00 +15°C° 0 mm 2 m/s 767 mmHg 54%
    09:00 +17°C° 0 mm 3 m/s 767 mmHg 48%
    10:00 +19°C° 0 mm 3 m/s 766 mmHg 42%
    11:00 +20°C° 0 mm 4 m/s 766 mmHg 36%
    12:00 +21°C° 0 mm 4 m/s 766 mmHg 35%
    13:00 +21°C° 0 mm 4 m/s 765 mmHg 35%
    14:00 +22°C° 0 mm 4 m/s 765 mmHg 34%
    15:00 +21°C° 0 mm 4 m/s 765 mmHg 35%
    16:00 +21°C° 0 mm 3 m/s 764 mmHg 36%
    17:00 +21°C° 0 mm 3 m/s 764 mmHg 36%
    18:00 +19°C° 0 mm 3 m/s 764 mmHg 43%
    19:00 +17°C° 0 mm 2 m/s 764 mmHg 49%
    20:00 +15°C° 0 mm 2 m/s 764 mmHg 56%
    21:00 +14°C° 0 mm 2 m/s 764 mmHg 58%
    22:00 +14°C° 0 mm 2 m/s 763 mmHg 61%
    23:00 +13°C° 0 mm 2 m/s 763 mmHg 63%

    26 Abril, Sexta-feira

    Tempo Temperatura Precipitação Vento Pressão Humidade
    00:00 +13°C° 0 mm 2 m/s 763 mmHg 65%
    01:00 +12°C° 0 mm 2 m/s 763 mmHg 67%
    02:00 +12°C° 0 mm 2 m/s 763 mmHg 69%
    03:00 +10°C° 0 mm 2 m/s 762 mmHg 71%
    04:00 +10°C° 0 mm 2 m/s 762 mmHg 73%
    05:00 +10°C° 0 mm 2 m/s 762 mmHg 76%
    06:00 +12°C° 0 mm 2 m/s 761 mmHg 70%
    07:00 +13°C° 0 mm 3 m/s 761 mmHg 65%
    08:00 +16°C° 0 mm 3 m/s 761 mmHg 59%
    09:00 +17°C° 0 mm 3 m/s 760 mmHg 54%
    10:00 +19°C° 0 mm 3 m/s 760 mmHg 49%
    11:00 +21°C° 0 mm 4 m/s 760 mmHg 44%
    12:00 +22°C° 0 mm 3 m/s 759 mmHg 43%
    13:00 +22°C° 0 mm 3 m/s 759 mmHg 42%
    14:00 +24°C° 0 mm 3 m/s 759 mmHg 40%
    15:00 +24°C° 0 mm 3 m/s 758 mmHg 41%
    16:00 +24°C° 0 mm 2 m/s 758 mmHg 42%
    17:00 +24°C° 0 mm 2 m/s 758 mmHg 43%
    18:00 +21°C° 0 mm 2 m/s 758 mmHg 50%
    19:00 +19°C° 0 mm 2 m/s 758 mmHg 57%
    20:00 +18°C° 0 mm 1 m/s 758 mmHg 64%
    21:00 +16°C° 0 mm 1 m/s 758 mmHg 66%
    22:00 +16°C° 0 mm 1 m/s 758 mmHg 69%
    23:00 +15°C° 0 mm 2 m/s 758 mmHg 72%

    27 Abril, Sábado

    Tempo Temperatura Precipitação Vento Pressão Humidade
    00:00 +14°C° 0 mm 2 m/s 757 mmHg 74%
    01:00 +14°C° 0 mm 2 m/s 757 mmHg 76%
    02:00 +13°C° 0 mm 2 m/s 757 mmHg 78%
    03:00 +13°C° 0 mm 2 m/s 757 mmHg 78%
    04:00 +13°C° 0 mm 2 m/s 757 mmHg 78%
    05:00 +13°C° 0 mm 2 m/s 757 mmHg 77%
    06:00 +14°C° 0 mm 2 m/s 757 mmHg 72%
    07:00 +16°C° 0 mm 2 m/s 757 mmHg 66%
    08:00 +17°C° 0 mm 3 m/s 756 mmHg 60%
    09:00 +18°C° 0.5 mm 3 m/s 756 mmHg 62%
    10:00 +18°C° 0.5 mm 3 m/s 756 mmHg 65%
    11:00 +19°C° 0.5 mm 3 m/s 756 mmHg 67%
    12:00 +19°C° 0.4 mm 3 m/s 756 mmHg 69%
    13:00 +19°C° 0.4 mm 3 m/s 756 mmHg 71%
    14:00 +19°C° 0.4 mm 3 m/s 755 mmHg 74%
    15:00 +20°C° 0 mm 3 m/s 755 mmHg 71%
    16:00 +20°C° 0 mm 3 m/s 755 mmHg 68%
    17:00 +21°C° 0 mm 2 m/s 754 mmHg 65%
    18:00 +20°C° 0.2 mm 3 m/s 754 mmHg 71%
    19:00 +19°C° 0.2 mm 3 m/s 754 mmHg 77%
    20:00 +18°C° 0.2 mm 3 m/s 754 mmHg 83%
    21:00 +17°C° 0.5 mm 3 m/s 754 mmHg 87%
    22:00 +16°C° 0.5 mm 3 m/s 754 mmHg 91%
    23:00 +16°C° 0.5 mm 3 m/s 754 mmHg 95%
    Mostrar mais